Terminal Aerodrome Forecast
Issued by NWS

Home | Current Version | Previous Version | Text Only | Print | Product List | Glossary On
Versions: 1 2 3 4 5 6 7 8 9 10 11 12 13 14 15 16 17 18 19 20 21 22 23 24 25 26 27 28 29 30 31 32 33 34 35 36
000
FTUS43 KILX 242000 AAA
TAFBMI
TAF AMD
KBMI 242002Z 2420/2518 25020G30KT P6SM VCSH OVC015
      TEMPO 2420/2423 5SM -SHSN BR OVC010
     FM242300 26018G28KT P6SM VCSH OVC015
     FM250200 26015KT P6SM OVC020
     FM250800 27012KT P6SM BKN020
     FM251600 28012KT P6SM SCT025 BKN035=

USA.gov is the U.S. government's official web portal to all federal, state and local government web resources and services.